Regional Weather Roundup
Issued by NWS

Home | Current Version | Previous Version | Graphics & Text | Print | Product List | Glossary On
Versions: 1 2 3 4 5 6 7 8 9 10 11 12 13 14 15 16 17 18 19 20 21 22 23 24 25 26 27 28 29 30 31 32 33 34 35 36 37 38 39 40 41 42 43 44 45 46 47 48 49 50
000
ASUS43 KFSD 280202
RWRSD

WEATHER ROUNDUP FOR SOUTH DAKOTA
NATIONAL WEATHER SERVICE SIOUX FALLS SD
900 PM CDT SUN JUL 27 2014

NOTE: "FAIR" INDICATES FEW OR NO CLOUDS BELOW 12,000 FEET WITH NO
SIGNIFICANT WEATHER AND/OR OBSTRUCTIONS TO VISIBILITY.


SDZ001>005-009-010-012>017-280300-
NORTHWEST AND NORTH CENTRAL SOUTH DAKOTA

CITY           SKY/WX    TMP DP  RH WIND       PRES   REMARKS
BUFFALO          N/A     68  54  60 E15       30.23R
FAITH            N/A     68  53  58 NE12      30.27R
MOBRIDGE         N/A     64  52  64 N8        30.24R
$$

SDZ012>016-024>037-041>051-057-063-072>074-280300-
SOUTHWEST AND SOUTH CENTRAL SOUTH DAKOTA

CITY           SKY/WX    TMP DP  RH WIND       PRES   REMARKS
RAPID CTY ARPT CLEAR     70  52  52 NE8       30.27R
PIERRE         CLEAR     69  54  58 N10       30.22R
CUSTER         CLEAR     66  45  46 E6        30.39S
ELLSWORTH AFB  CLEAR     73  52  47 E10       30.27R
PHILIP         CLEAR     73  52  47 NE10      30.24R
PINE RIDGE     CLEAR     71  54  54 NE6       30.27R
WINNER         FAIR      71  51  49 N10       30.23R
$$

SDZ004>011-016>023-039-040-280300-
NORTHEAST SOUTH DAKOTA

CITY           SKY/WX    TMP DP  RH WIND       PRES   REMARKS
ABERDEEN       CLOUDY    63  55  75 N9        30.22S
WATERTOWN      CLOUDY    63  56  78 N12       30.19S
SISSETON         N/A     65  56  72 N9        30.18R
$$

SDZ017-020-022-023-036>040-048>070-280300-
SOUTHEAST SOUTH DAKOTA

CITY           SKY/WX    TMP DP  RH WIND       PRES   REMARKS
SIOUX FALLS    PTCLDY    64  56  75 NW9       30.17S
HURON          CLEAR     65  54  67 N9        30.21R
CHAMBERLAIN    CLEAR     69  54  58 N7        30.22R
MITCHELL       CLEAR     65  55  70 N9        30.21R
YANKTON        CLEAR     64  55  72 N10       30.19R
$$

ABBREVIATIONS USED IN REMARKS
   TC - TEMPERATURE IN CELSIUS
  WCI - WIND CHILL INDEX
   HX - HEAT INDEX
  VSB - VISIBILITY



USA.gov is the U.S. government's official web portal to all federal, state and local government web resources and services.